Location: Drummondville
(45.8830°N, 72.4830°W)
Time: 07:36:30
(UTC-05:00)

N. Korean satellite - Visible Passes

Search period start: 17 January 2018 00:00
Search period end: 27 January 2018 00:00
Orbit: 459 x 515 km, 97.2° (Epoch: 17 January)

Date Brightness Start Highest point End Pass type
(mag) Time Alt. Az. Time Alt. Az. Time Alt. Az.
17 Jan 7.3 06:25:01 10° NNE 06:28:25 54° E 06:31:48 10° S visible
17 Jan 7.4 17:03:34 10° SE 17:06:47 30° ENE 17:09:58 10° N visible
17 Jan 9.5 18:37:42 10° SW 18:40:21 19° W 18:42:59 10° NW visible
18 Jan 8.8 06:01:40 10° NE 06:04:40 27° E 06:07:39 10° SSE visible
18 Jan 8.3 18:13:13 10° SSW 18:16:33 35° W 18:19:52 10° NNW visible
19 Jan 9.8 05:38:50 10° NE 05:40:50 15° E 05:42:51 10° SE visible
19 Jan 6.8 17:49:15 10° S 17:52:51 70° WSW 17:56:25 10° NNW visible
20 Jan 6.4 06:47:28 10° N 06:50:55 73° WNW 06:54:21 10° SSW visible
20 Jan 6.6 17:25:41 10° SSE 17:29:13 57° ENE 17:32:42 10° N visible
20 Jan 10.3 19:02:31 10° W 19:03:03 10° W 19:03:36 10° W visible
21 Jan 7.4 06:23:51 10° NNE 06:27:14 53° E 06:30:37 10° S visible
21 Jan 9.5 18:36:34 10° SW 18:39:11 19° W 18:41:48 10° NW visible
22 Jan 8.9 06:00:30 10° NE 06:03:30 26° E 06:06:27 10° SSE visible
22 Jan 8.3 18:12:05 10° SSW 18:15:24 35° W 18:18:41 10° NNW visible
23 Jan 9.9 05:37:41 10° ENE 05:39:39 14° E 05:41:37 10° SE visible
23 Jan 6.8 17:48:07 10° S 17:51:40 72° WSW 17:55:12 10° NNW visible
24 Jan 6.4 06:46:16 10° N 06:49:43 75° WNW 06:53:11 10° SSW visible
24 Jan 6.6 17:24:33 10° SSE 17:28:01 55° ENE 17:31:29 10° N visible
24 Jan 10.3 19:01:16 10° W 19:01:52 10° W 19:02:27 10° W visible
25 Jan 7.5 06:22:38 10° NNE 06:26:02 52° E 06:29:25 10° S visible
25 Jan 9.5 18:35:22 10° SW 18:37:59 19° W 18:40:35 10° NW visible
26 Jan 9.0 05:59:18 10° NE 06:02:16 26° E 06:05:14 10° SSE visible
26 Jan 8.3 18:10:54 10° SSW 18:14:11 36° W 18:17:27 10° NNW visible
